Location: D�pe
(52.6057°N, 8.1808°E)
Time: 07:31:49
(UTC+00:00)

Cosmos 220 Rocket - Pass Details

Date: 29 October 2020
Orbit: 574 x 617 km, 74.0° (Epoch: 01 December)

Event Time Altitude Azimuth Distance (km) Brightness Sun altitude
Rises 17:46:35 0° 191° (S) 2,840 7.6 -16.3°
Reaches altitude 10° 17:48:49 10° 187° (S) 1,948 6.7 -16.6°
Maximum altitude 17:53:05 55° 110° (ESE) 737 4.1 -17.3°
Enters shadow 17:55:45 22° 40° (NE) 1,357 5.4 -17.7°
